Location: La Pernelle
(49.6188°N, 1.2999°W)
Time: 16:17:17
(UTC+00:00)

Cosmos 1626 - Pass Details

Date: 29 October 2021
Orbit: 487 x 492 km, 82.5° (Epoch: 30 November)

Event Time Altitude Azimuth Distance (km) Brightness Sun altitude
Exits shadow 05:02:43 15° 338° (NNW) 1,403 4.2 -17.7°
Drops below altitude 10° 05:03:38 10° 347° (NNW) 1,700 4.7 -17.6°
Sets 05:06:01 0° 1° (N) 2,587 5.8 -17.2°
